Погода в Череповеце

Хотите узнать прогноз погоды в Череповеце? Тогда Вам сюда: Погода в Череповеце

Поиск расширенной информации на нашем сайте:

Полезная информация:

Новости сайта



02.01.2020
Опубликован Долгосрочный прогноз погоды по городам России и ближнего зарубежья на январь 2020 года.
Карты: Прогноз на январь и февраль 2020 года, Сравнение прогнозируемой аномалии приземной температуры воздуха на январь 2020 года по разным моделям.




Погода в Череповеце - сегодня

Время (UTC), дата Ветер
(°,м/с) 
Видим.   Явления Облачность Т
(°С)
Тd
(°С)
f(%) Тe
(°С)
Pmin
(гПа)
dP
(гПа)
Po
(мм)
O2
(г/м3)
Тmin Tmax R s Состояние
почвы
09 16.01.21 010 (С) 10 км  [диам. гололёда 4 мм]  10/4 1000 м средняя 
[Sc|Ac trans]
-19.7 -23 75 -25  1012.7  0.2  748  326           
12 16.01.21 360 (С) 10 км    10/0 средняя 
[Ac trans]
-20.1 -23.4 75 -26  1011.7  -1.1  747  327           
15 16.01.21 350 (С) 10 км    8/0 средняя, верхняя 
[Ac trans|Ci fib]
-23.1 -26.4 74 -29  1011.4  -0.5  746  330    -19.1       
18 16.01.21 010 (С) 10 км    8/0 средняя, верхняя 
[Ac trans|Ci fib]
-22.4 -24.9 80 -28  1011.8  0.4  747  330           
21 16.01.21 350 (С) 10 км  [диам. гололёда 4 мм]  4/0 средняя, верхняя 
[Ac trans|Ci fib]
-22.4 -24.9 80 -27  1012.2  0.4  747  330           
00 17.01.21 360 (С) 10 км    3/0 верхняя 
[Ci fib]
-22.6 -25.1 80 -26  1012.8  0.6  748  330           
03 17.01.21 350 (С) 10 км  [диам. гололёда 4 мм]  8/6 240 м средняя 
[St|Ac trans]
-23.1 -25.7 79 -26  1013.9  748  331  -23.1      39  равномерный
сухой снег
100% 
06 17.01.21 тихо ()   10 км    10/10 180 м 
[St]
-25.2 -27.7 80 -25  1015.2  1.2  749  334  -25.7         
09 17.01.21 тихо ()   10 км  [диам. гололёда 4 мм]  9/0 средняя, верхняя 
[Ac trans|Ci fib]
-20.5 -23.1 80 -21  1016.2  1.3  750  328           
12 17.01.21 210 (ЮЗ) 6000 м  слаб. снег  10/8 330 м средняя 
[Sc|Ac trans]
-17.6 -20.2 80 -18  1016  750  325           
15 17.01.21 220 (ЮЗ) 6000 м  слаб. снег [диам. гололёда 4 мм]  10/10 120 м 
[Sc]
-17.5 -19.4 85 -21  1016.2  0.2  750  325    -17.3  0.0     
18 17.01.21 230 (ЮЗ) 7000 м  слаб. снег  10/10 180 м 
[Sc]
-16.6 -18.5 85 -20  1016.5  0.3  751  323           
21 17.01.21 220 (ЮЗ) 5000 м  слаб. снег  10/10 180 м 
[Sc]
-14.9 -16.9 85 -19  1016.3  -0.1  750  321           
00 18.01.21 200 (Ю) 4700 м  слаб. снег  10/10 100 м 
[Sc]
-14.3 -16.3 85 -16  1016.3  750  320           
03 18.01.21 220 (ЮЗ) 4300 м  слаб. снег [диам. гололёда 4 мм]  10/10 150 м 
[Sc]
-13.7 -15.7 85 -17  1015.8  -0.3  750  320  -17.5    0.0  39  равномерный
сухой снег
100% 
06 18.01.21 210 (ЮЗ) 10 км  слаб. снег  10/10 150 м 
[Sc]
-13.3 -14.6 90 -17  1016.3  0.5  751  319           
09 18.01.21 230 (ЮЗ) 6000 м  слаб. снег  10/10 150 м 
[Sc]
-12 -13.3 90 -15  1017  0.8  751  318           
12 18.01.21 210 (ЮЗ) 8000 м  слаб. снег  10/10 150 м 
[Sc]
-10.9 -12.2 90 -14  1016.8  -0.2  751  316           
15 18.01.21 210 (ЮЗ) 4500 м  дымка{снег}  10/10 60 м 
[St]
-10.4 -11.7 90 -12  1017.1  0.3  751  316    -10.4  0.3     
18 18.01.21 210 (ЮЗ) 4100 м  дымка{снег}  10/10 30 м 
[St]
-10.1 -11.4 90 -12  1016.4  -0.6  751  315           
21 18.01.21 210 (ЮЗ) 5000 м  слаб. снег  10/10 120 м 
[Sc]
-9.5 -10.7 91 -11  1016.6  0.2  751  315           
00 19.01.21 210 (ЮЗ) 3200 м  дымка{снег}  10/10 60 м 
[St]
-9.3 -10.5 91 -11  1016  -0.6  751  314           
03 19.01.21 250 (З) 10 км  [диам. гололёда 4 мм]  10/10 240 м 
[Sc]
-9.2 -10.3 92 -9  1015.4  -0.6  750  314  -10.4    0.0  39  равномерный
сухой снег
100% 
06 19.01.21 230 (ЮЗ) 10 км    10/10 270 м 
[Sc]
-9.6 -10.8 91 -11  1015.2  -0.2  750  314           
09 19.01.21 210 (ЮЗ) 10 км  [диам. гололёда 4 мм]  10/4 600 м средняя 
[Sc|Ac trans]
-9 -10.1 92 -9  1015.4  0.2  750  314           
Время (UTC), дата Ветер
(°,м/с) 
Видим.   Явления Облачность Т
(°С)
Тd
(°С)
f(%) Тe
(°С)
Pmin
(гПа)
dP
(гПа)
Po
(мм)
O2
(г/м3)
Тmin Tmax R s Состояние
почвы

Для получения пояснительной информации подведите курсор к названию столбца.

ПОГОДА в Череповеце - архив

Всё, что Вы хотите узнать о погоде в Череповеце - удобно и подробно!

Выберите нужную дату (начиная с 1 января 2019* года) и нажмите кнопку "Найти".
Будут отображены архивные сводки погоды по пункту Череповец, начиная с указанной даты.


Отображать данные в формате CSV (для использования в таблицах Excel)


Внимание! Наш архив погоды предназначен исключительно для личного некоммерческого использования в познавательных целях. Если Вам необходимы официальные справки о состоянии погоды (для производственных, юридических, коммерческих и т.п. целей), обращайтесь в органы Росгидромета.

*Примечание: данная дата относится к архиву по метеостанциям СССР (Россия, СНГ, Балтия).
Архив по метеостанциям Зарубежной Европы и Азии (кроме Китая) хранится 10 дней, по другим регионам земного шара (Китай, Африка, Америка, Австралия, Океания) - 1 день.

Череповец - район местоположения метеостанции


Название, широта, долгота, высота метеостанции:
Череповец 59.2°ш. 38°д. 114 м над ур. моря [Российская Федерация]

Дополнительная информация

В oтличие oт бoльшинства пoгoдных сайтoв мы публикуем пoдрoбную метеoинфoрмацию в детальнoм прoфессиoнальнoм фoрмате.

Характеристики температуры и влажнoсти вoздуха измеряются на высoте 2 м в тени вдали oт зданий и деревьев.
Скoрoсть ветра измеряется на высoте 10 м (на урoвне рoста челoвека скoрoсть ветра ниже в 1.5-2 раза). Если метеoстанция нахoдится в гoрoде или в лесу, тo скoрoсть ветра занижена на 2-4 м/с пo сравнению с oткрытым местoм. Скoрoсть ветра над акватoриями крупных рек и oзёр, а также на вершинах хoлмoв на 2-5 м/с выше, чем в oбычных услoвиях.
Атмoсфернoе давление в разных тoчках местнoсти мoжет значительнo oтличаться oт давления на метеoстанции, в зависимoсти oт услoвий рельефа (при пoдъёме на 10 м давление пoнижается примернo на 1 мм рт.ст.).